Home > Weather > Lennestadt > Past weeks

Flag for Germany Past Weather in Lennestadt, North Rhine-Westphalia, Germany — Yesterday and Last 2 Weeks

Now
61 °F

Scattered clouds.


Feels Like: 61 °F
Forecast: 58 / 70 °F
Wind: 10 mph from Northwest

Location: Hessen

Current Time: Jul 27, 2016 at 9:54:58 AM

Latest Report: Jul 27, 2016 at 9:20 AM


Visibility: 4 mi

Pressure: 30.09 "Hg

Humidity: 94%

Dew Point: 59 °F

Location of LennestadtLocation

Past Weather in Lennestadt — Graph

°F

Lennestadt Temperature Yesterday

Maximum temperature yesterday: 70 °F (at 2:20 PM)
Minimum temperature yesterday: 63 °F (at 7:50 PM)
Average temperature yesterday: 66 °F

High & Low Weather Summary for the Past Weeks

 TemperatureHumidityPressure
High84 °F (Jul 20, 2:50 PM)100% (Jul 13, 7:50 PM)30.30 "Hg (Jul 13, 7:50 PM)
Low48 °F (Jul 14, 7:50 AM)40% (Jul 20, 3:50 PM)29.92 "Hg (Jul 12, 3:50 PM)
Average66 °F72%30.13 "Hg
* Reported Jul 12 8:20 AM — Jul 27 8:20 AM, Lennestadt, Weather by CustomWeather, © 2016

Note: Actual official high and low records may vary slightly from our data, if they occured in-between our weather recording intervals... More about our weather records

Advertising

Lennestadt Weather History for the Previous 24 Hours

Scroll right to see more
 ConditionsComfort  
Time TempWeatherWind HumidityBarometerVisibility
8:20 AM
Wed, Jul 27
59 °FClear.9 mph94%30.07 "Hg5 mi
7:50 AM59 °FPassing clouds.8 mph94%30.07 "Hg4 mi
8:50 PM
Tue, Jul 26
63 °FPartly sunny.8 mph100%30.15 "Hg4 mi
8:20 PM63 °FPartly sunny.9 mph100%30.15 "Hg4 mi
7:50 PM63 °FPartly sunny.10 mph100%30.15 "HgN/A
7:20 PM64 °FBroken clouds.10 mph94%30.15 "HgN/A
6:50 PM64 °FBroken clouds.12 mph94%30.15 "HgN/A
6:20 PM64 °FPartly sunny.10 mph100%30.15 "HgN/A
5:50 PM66 °FSprinkles. Partly sunny.9 mph88%30.15 "HgN/A
5:20 PM68 °FPartly sunny.8 mph83%30.15 "HgN/A
4:50 PM68 °FSprinkles. Partly sunny.7 mph78%30.15 "HgN/A
4:20 PM70 °FPartly sunny.7 mph73%30.15 "HgN/A
3:50 PM70 °FScattered clouds.7 mph69%30.15 "HgN/A
3:20 PM70 °FScattered clouds.6 mph69%30.15 "HgN/A
2:50 PM70 °FBroken clouds.6 mph69%30.15 "HgN/A
2:20 PM70 °FBroken clouds.7 mph73%30.15 "HgN/A
1:50 PM68 °FBroken clouds.6 mph83%30.18 "HgN/A
1:20 PM66 °FPartly sunny.5 mph88%30.18 "HgN/A
12:50 PM66 °FOvercast.6 mph88%30.18 "HgN/A
12:20 PM66 °FOvercast.7 mph88%30.18 "HgN/A
11:50 AM66 °FBroken clouds.8 mph88%30.18 "HgN/A
11:20 AM66 °FBroken clouds.5 mph88%30.18 "HgN/A
10:50 AM66 °FBroken clouds.5 mph88%30.18 "HgN/A
10:20 AM66 °FPartly sunny.7 mph88%30.18 "HgN/A
9:50 AM66 °FBroken clouds.8 mph94%30.18 "HgN/A
9:20 AM66 °FPartly sunny.7 mph94%30.18 "Hg5 mi
Weather by CustomWeather, © 2016

See weather overviewHow to use our weather pages